STARLINK-1032 (44737 NORAD) Tracking and Keplerian Element Data

This shows tracking and keplerian element data for the satellite.

Feedback or suggestion? Click here.




ElementValue
Catalog44737
NameSTARLINK-1032
Epoch Orbit1141
Epoch Day23.25001157
Epoch Year2020
RAAN172.22
Inclination53.0059
Eccentricity0.0001327
Argument of Perigee74.66
Mean Anonmoly274.7489
Mean Motion15.33926791
Decay Rate-0.00050442
L11 44737U 19074AA 20023.25001157 -.00050442 00000-0 -15142-2 0 9996
L22 44737 53.0059 172.2200 0001327 74.6600 274.7489 15.33926791 11413

Live tracking and technical data element details for STARLINK-1032 (NORAD 44737). STARLINK-1032 can be tracked NOW for your location showing map with azimuth and elevation plus other details from your city location.

Track the satellite on the map from your city or location and see movement details for azimuth, elevation, latitude, longitude, range, height, and movement on the map or in text.







IsCatalogInMostPopularTable: catalog: 44737, numindb: 10
Update: records affected: 1



GetName: 44737 STARLINK-1032

Hit Count: updated at: Fri, 24 Jan 2020 14:24:19 GMT